When you browse on this site, cookies collect data to enhance your experience and personalize the content and advertising you see.
Visit our Privacy Policy to learn more. By continuing to use the site, you agree to this use of cookies and data.
  • Em Portugal
  • Lista de países
  • Para 7 dias
  • Temperatura da água
  • Mapas de satélite
  • Mapa do tempo
  • Widgets de tempo
  • user-avatar
    Iniciar Sessão

    Previsão horária em Konstantinovka

    Hoje, 13 Dezembro, Quinta-feira

    Tempo Temperatura Precipitação Vento Pressão Humidade
    00:00 -1°C° 0 mm 5 m/s 747 mmHg 86%
    01:00 -1°C° 0 mm 4 m/s 748 mmHg 86%
    02:00 -1°C° 0 mm 4 m/s 748 mmHg 86%
    03:00 -1°C° 0 mm 4 m/s 749 mmHg 88%
    04:00 -1°C° 0 mm 4 m/s 749 mmHg 88%
    05:00 -1°C° 0 mm 4 m/s 750 mmHg 88%
    06:00 -2°C° 0 mm 4 m/s 750 mmHg 88%
    07:00 -2°C° 0 mm 4 m/s 750 mmHg 88%
    08:00 -1°C° 0 mm 3 m/s 751 mmHg 88%
    09:00 -1°C° 0 mm 3 m/s 751 mmHg 89%
    10:00 0°C° 0 mm 3 m/s 752 mmHg 86%
    11:00 -1°C° 0 mm 4 m/s 752 mmHg 84%
    12:00 0°C° 0 mm 4 m/s 753 mmHg 81%
    13:00 0°C° 0 mm 4 m/s 753 mmHg 80%
    14:00 0°C° 0 mm 4 m/s 753 mmHg 80%
    15:00 +1°C° 0 mm 3 m/s 753 mmHg 79%
    16:00 +1°C° 0 mm 3 m/s 754 mmHg 80%
    17:00 +2°C° 0 mm 2 m/s 754 mmHg 81%
    18:00 +2°C° 0 mm 2 m/s 755 mmHg 82%
    19:00 +1°C° 0 mm 2 m/s 755 mmHg 82%
    20:00 +1°C° 0 mm 2 m/s 755 mmHg 81%
    21:00 +1°C° 0 mm 2 m/s 755 mmHg 81%
    22:00 +1°C° 0 mm 2 m/s 756 mmHg 82%
    23:00 -1°C° 0 mm 2 m/s 756 mmHg 83%

    Amanhã, 14 Dezembro, Sexta-feira

    Tempo Temperatura Precipitação Vento Pressão Humidade
    00:00 -1°C° 0 mm 2 m/s 756 mmHg 85%
    01:00 -1°C° 0 mm 2 m/s 756 mmHg 85%
    02:00 -1°C° 0 mm 2 m/s 756 mmHg 86%
    03:00 -1°C° 0 mm 2 m/s 756 mmHg 86%
    04:00 -1°C° 0 mm 2 m/s 756 mmHg 87%
    05:00 -1°C° 0 mm 2 m/s 756 mmHg 87%
    06:00 -1°C° 0 mm 2 m/s 757 mmHg 88%
    07:00 -1°C° 0 mm 2 m/s 757 mmHg 88%
    08:00 -1°C° 0 mm 2 m/s 757 mmHg 89%
    09:00 -1°C° 0 mm 2 m/s 757 mmHg 89%
    10:00 +1°C° 0 mm 2 m/s 757 mmHg 87%
    11:00 +3°C° 0 mm 1 m/s 758 mmHg 84%
    12:00 +4°C° 0 mm 1 m/s 758 mmHg 82%
    13:00 +4°C° 0 mm 1 m/s 758 mmHg 82%
    14:00 +4°C° 0 mm 1 m/s 758 mmHg 82%
    15:00 +3°C° 0 mm 0 m/s 758 mmHg 83%
    16:00 +2°C° 0 mm 0 m/s 758 mmHg 84%
    17:00 +1°C° 0 mm 0 m/s 758 mmHg 86%
    18:00 0°C° 0 mm 0 m/s 759 mmHg 88%
    19:00 0°C° 0 mm 0 m/s 759 mmHg 88%
    20:00 0°C° 0 mm 0 m/s 759 mmHg 88%
    21:00 0°C° 0 mm 0 m/s 759 mmHg 88%
    22:00 0°C° 0 mm 0 m/s 759 mmHg 88%
    23:00 +1°C° 0 mm 1 m/s 760 mmHg 88%

    Depois de amanhã, 15 Dezembro, Sábado

    Tempo Temperatura Precipitação Vento Pressão Humidade
    00:00 +1°C° 0 mm 1 m/s 760 mmHg 88%
    01:00 +1°C° 0 mm 1 m/s 760 mmHg 88%
    02:00 +1°C° 0 mm 1 m/s 760 mmHg 88%
    03:00 0°C° 0 mm 0 m/s 760 mmHg 88%
    04:00 0°C° 0 mm 0 m/s 760 mmHg 89%
    05:00 0°C° 0 mm 0 m/s 761 mmHg 89%
    06:00 -1°C° 0 mm 0 m/s 761 mmHg 89%
    07:00 -1°C° 0 mm 0 m/s 761 mmHg 89%
    08:00 -1°C° 0 mm 0 m/s 761 mmHg 89%
    09:00 -1°C° 0 mm 0 m/s 762 mmHg 89%
    10:00 0°C° 0 mm 0 m/s 762 mmHg 85%
    11:00 +1°C° 0 mm 0 m/s 762 mmHg 81%
    12:00 +2°C° 0 mm 0 m/s 762 mmHg 77%
    13:00 +2°C° 0 mm 0 m/s 762 mmHg 78%
    14:00 +3°C° 0 mm 1 m/s 762 mmHg 78%
    15:00 +3°C° 0 mm 1 m/s 762 mmHg 79%
    16:00 +2°C° 0 mm 1 m/s 763 mmHg 82%
    17:00 +1°C° 0 mm 1 m/s 763 mmHg 85%
    18:00 -2°C° 0 mm 2 m/s 763 mmHg 89%
    19:00 -2°C° 0 mm 2 m/s 763 mmHg 90%
    20:00 -2°C° 0 mm 2 m/s 763 mmHg 90%
    21:00 -3°C° 0 mm 2 m/s 764 mmHg 91%
    22:00 -3°C° 0 mm 2 m/s 764 mmHg 91%
    23:00 -3°C° 0 mm 2 m/s 764 mmHg 90%

    16 Dezembro, Domingo

    Tempo Temperatura Precipitação Vento Pressão Humidade
    00:00 -3°C° 0 mm 2 m/s 764 mmHg 90%
    01:00 -4°C° 0 mm 3 m/s 764 mmHg 89%
    02:00 -4°C° 0 mm 3 m/s 764 mmHg 88%
    03:00 -5°C° 0 mm 3 m/s 764 mmHg 88%
    04:00 -5°C° 0 mm 3 m/s 764 mmHg 87%
    05:00 -5°C° 0 mm 3 m/s 764 mmHg 87%
    06:00 -5°C° 0 mm 3 m/s 764 mmHg 87%
    07:00 -5°C° 0 mm 4 m/s 764 mmHg 86%
    08:00 -5°C° 0 mm 4 m/s 764 mmHg 86%
    09:00 -5°C° 0 mm 4 m/s 764 mmHg 85%
    10:00 -4°C° 0 mm 4 m/s 764 mmHg 82%
    11:00 -4°C° 0 mm 4 m/s 764 mmHg 80%
    12:00 -4°C° 0 mm 5 m/s 764 mmHg 77%
    13:00 -4°C° 0 mm 5 m/s 764 mmHg 77%
    14:00 -4°C° 0 mm 5 m/s 764 mmHg 76%
    15:00 -4°C° 0 mm 5 m/s 763 mmHg 76%
    16:00 -4°C° 0 mm 5 m/s 763 mmHg 78%
    17:00 -5°C° 0 mm 5 m/s 763 mmHg 80%
    18:00 -5°C° 0 mm 5 m/s 763 mmHg 82%
    19:00 -5°C° 0 mm 5 m/s 763 mmHg 83%
    20:00 -5°C° 0 mm 5 m/s 763 mmHg 83%
    21:00 -6°C° 0 mm 6 m/s 763 mmHg 83%
    22:00 -6°C° 0 mm 6 m/s 763 mmHg 82%
    23:00 -6°C° 0 mm 5 m/s 763 mmHg 82%

    17 Dezembro, Segunda-feira

    Tempo Temperatura Precipitação Vento Pressão Humidade
    00:00 -6°C° 0 mm 5 m/s 763 mmHg 81%
    01:00 -6°C° 0 mm 6 m/s 763 mmHg 79%
    02:00 -6°C° 0 mm 6 m/s 762 mmHg 77%
    03:00 -8°C° 0 mm 6 m/s 762 mmHg 75%
    04:00 -8°C° 0 mm 6 m/s 762 mmHg 73%
    05:00 -8°C° 0 mm 6 m/s 762 mmHg 71%
    06:00 -8°C° 0 mm 6 m/s 762 mmHg 69%
    07:00 -8°C° 0 mm 6 m/s 762 mmHg 66%
    08:00 -8°C° 0 mm 6 m/s 762 mmHg 64%
    09:00 -9°C° 0 mm 6 m/s 762 mmHg 62%
    10:00 -8°C° 0 mm 6 m/s 762 mmHg 59%
    11:00 -6°C° 0 mm 6 m/s 762 mmHg 56%
    12:00 -6°C° 0 mm 6 m/s 761 mmHg 53%
    13:00 -6°C° 0 mm 6 m/s 761 mmHg 53%
    14:00 -6°C° 0 mm 6 m/s 761 mmHg 53%
    15:00 -5°C° 0 mm 6 m/s 761 mmHg 53%
    16:00 -6°C° 0 mm 6 m/s 761 mmHg 55%
    17:00 -8°C° 0 mm 6 m/s 761 mmHg 58%
    18:00 -8°C° 0 mm 6 m/s 761 mmHg 60%
    19:00 -8°C° 0 mm 6 m/s 761 mmHg 62%
    20:00 -9°C° 0 mm 6 m/s 761 mmHg 64%
    21:00 -9°C° 0 mm 6 m/s 761 mmHg 67%
    22:00 -9°C° 0 mm 6 m/s 762 mmHg 69%
    23:00 -9°C° 0 mm 6 m/s 762 mmHg 71%

    18 Dezembro, Terça-feira

    Tempo Temperatura Precipitação Vento Pressão Humidade
    00:00 -10°C° 0 mm 6 m/s 762 mmHg 73%
    01:00 -10°C° 0 mm 6 m/s 762 mmHg 74%
    02:00 -10°C° 0 mm 6 m/s 762 mmHg 76%
    03:00 -10°C° 0 mm 6 m/s 761 mmHg 77%
    04:00 -10°C° 0 mm 6 m/s 761 mmHg 78%
    05:00 -10°C° 0 mm 6 m/s 761 mmHg 79%
    06:00 -10°C° 0 mm 6 m/s 761 mmHg 80%
    07:00 -10°C° 0 mm 6 m/s 761 mmHg 80%
    08:00 -10°C° 0 mm 6 m/s 761 mmHg 80%
    09:00 -10°C° 0 mm 6 m/s 762 mmHg 80%
    10:00 -10°C° 0 mm 6 m/s 762 mmHg 78%
    11:00 -9°C° 0 mm 6 m/s 762 mmHg 75%
    12:00 -9°C° 0 mm 6 m/s 761 mmHg 73%
    13:00 -8°C° 0 mm 6 m/s 761 mmHg 72%
    14:00 -8°C° 0 mm 6 m/s 761 mmHg 72%
    15:00 -8°C° 0 mm 6 m/s 761 mmHg 71%
    16:00 -8°C° 0 mm 6 m/s 761 mmHg 73%
    17:00 -8°C° 0 mm 6 m/s 761 mmHg 74%
    18:00 -8°C° 0 mm 6 m/s 761 mmHg 75%
    19:00 -8°C° 0 mm 6 m/s 761 mmHg 76%
    20:00 -8°C° 0 mm 6 m/s 761 mmHg 77%
    21:00 -8°C° 0 mm 6 m/s 761 mmHg 78%
    22:00 -8°C° 0 mm 6 m/s 761 mmHg 79%
    23:00 -7°C° 0 mm 5 m/s 761 mmHg 80%
    Mostrar mais